Location: Ostrava
(49.8330°N, 18.2830°E)
Time: 11:10:20
(UTC+02:00)

Iridium 39 - Visible Passes

Search period start: 02 September 2014 00:00
Search period end: 12 September 2014 00:00
Orbit: 776 x 779 km, 86.4° (Epoch: 01 September)

Date Brightness Start Highest point End Pass type
(mag) Time Alt. Az. Time Alt. Az. Time Alt. Az.
02 Sep 7.3 20:03:46 10° NNW 20:08:46 47° W 20:13:43 10° SSW visible
03 Sep 9.2 21:13:03 10° NW 21:15:08 12° WNW 21:17:14 10° W visible
04 Sep 8.8 20:38:12 10° NNW 20:42:00 21° WNW 20:45:48 10° SW visible
05 Sep 8.0 20:04:05 10° NNW 20:08:45 34° W 20:13:25 10° SSW visible
07 Sep 9.1 20:38:56 10° NW 20:41:53 15° WNW 20:44:50 10° WSW visible
08 Sep 8.6 20:04:29 10° NNW 20:08:42 25° W 20:12:54 10° SW visible
10 Sep 9.6 20:40:20 10° NW 20:41:43 11° WNW 20:43:06 10° W visible
11 Sep 9.1 20:05:03 10° NNW 20:08:37 19° WNW 20:12:10 10° WSW visible
